Regional Weather Roundup
Issued by NWS Albany, NY

Home | Current Version | Previous Version | Text Only | Print | Product List | Glossary On
Versions: 1 2 3 4 5 6 7 8 9 10 11 12 13 14 15 16 17 18 19 20 21 22 23 24 25 26 27 28 29 30 31 32 33 34 35 36 37 38 39 40 41 42 43 44 45 46 47 48 49 50
000
ASUS41 KALY 180410
RWRALY

NEW YORK STATE HOURLY WEATHER ROUNDUP
NATIONAL WEATHER SERVICE ALBANY NY
1100 PM EST WED JAN 17 2018

NOTE: "FAIR" INDICATES FEW OR NO CLOUDS BELOW 12,000 FEET WITH NO
SIGNIFICANT WEATHER AND/OR NO OBSTRUCTIONS TO VISIBILITY.

NYZ032-033-038>043-046>054-057>066-NYZ062>081-082-084-180500-
EAST


CITY           SKY/WX    TMP DP  RH WIND       PRES   REMARKS
ALBANY         FAIR      14   6  70 NW6       30.18F WCI   5
GLENS FALLS    FAIR      12   9  87 SW8       30.13F WCI   0
POUGHKEEPSIE   FAIR      14  10  84 CALM      30.17F
NEWBURGH       PTCLDY    14   9  79 VRB5      30.15F WCI   6
MONTGOMERY     FAIR      17   6  62 NW8       30.14F WCI   7
WHITE PLAINS   MOCLDY    23  18  81 NW10      30.13S WCI  12
ISLIP          CLOUDY    28  20  71 N13       30.12F WCI  17
NEW YORK CITY  MOCLDY    24  12  60 NW13      30.17F WCI  12
CENTRAL PARK   CLOUDY    23  10  57 VRB3      30.19F
$$

NYZ005>009-017-018-044>046-055-056-180500-
CENTRAL


CITY           SKY/WX    TMP DP  RH WIND       PRES   REMARKS
FULTON         FAIR       7   4  87 S3        30.14F
SYRACUSE       FLURRIES   7   4  87 CALM      30.15F
ROME           FAIR       0  -4  83 CALM      30.18F
ELMIRA         FAIR      14   7  73 SW9       30.14F WCI   2
BINGHAMTON     FAIR      10   4  76 SW8       30.07F WCI  -2
MONTICELLO     FAIR       4   1  88 W6        30.11F WCI  -7
$$

NYZ026>034-041>043-087-180500-
NORTH


CITY           SKY/WX    TMP DP  RH WIND       PRES   REMARKS
WATERTOWN      CLOUDY    19  15  84 S9        30.10F WCI   8
FORT DRUM      NOT AVBL
OGDENSBURG     MOCLDY    24  19  83 SW17G24   30.04F WCI  10
MASSENA        CLOUDY    21  17  84 S18G29    30.04F WCI   6
SARANAC LAKE   CLOUDY    13  10  88 SW12      29.98S WCI  -1
PLATTSBURGH    FAIR      19   9  65 S6        30.08F WCI  11
$$

NYZ001>004-010>016-019>021-085-180500-
WEST


CITY           SKY/WX    TMP DP  RH WIND       PRES   REMARKS
NIAGARA FALLS  MOCLDY    21  14  74 SW30G40   30.11F BLWGSNOWWCI   3
BUFFALO        LGT SNOW  17  11  77 SW23G31   30.13F BLWGSNOWWCI  -1
DUNKIRK        FAIR      14   6  70 S15       30.19F WCI  -1
JAMESTOWN      FAIR       8   5  87 SW15      30.14F WCI  -9
WELLSVILLE     FAIR      11   6  81 W14G23    30.07F WCI  -5
ROCHESTER      FAIR      19  11  70 W18       30.12F WCI   4
PENN YAN       FAIR      16   5  62 S10       30.10F WCI   4
$$

             KEY
       WCI = WIND CHILL INDEX
       VSB = VISIBILITY
       HX  = HEAT INDEX
$$



USA.gov is the U.S. government's official web portal to all federal, state and local government web resources and services.